Weather History for K40J - August, 2014

Change the Weather History Date:

Friday, August 22, 2014

  Actual Average (KCTY) Record (KCTY)
Temperature  
Mean Temperature 83 °F 81 °F  
Max Temperature 95 °F 91 °F 98 °F (2014)
Min Temperature 71 °F 72 °F 68 °F (2001)
Degree Days  
Heating Degree Days 0 0  
Month to date heating degree days 0  
Since 1 June heating degree days 0  
Since 1 July heating degree days 0  
Cooling Degree Days 18 16  
Month to date cooling degree days 362  
Year to date cooling degree days 1796  
Since 1 June cooling degree days 1317  
Growing Degree Days 33 (Base 50)    
Moisture  
Dew Point 72 °F    
Average Humidity 77    
Maximum Humidity 100    
Minimum Humidity 41    
Precipitation  
Precipitation 0.00 in 0.27 in 2.87 in (2008)
Month to date precipitation 5.13  
Year to date precipitation 33.05  
Sea Level Pressure  
Sea Level Pressure 30.05 in    
Wind  
Wind Speed 2 mph (NW)    
Max Wind Speed 9 mph    
Max Gust Speed -    
Visibility 9 miles    
Events      
T = Trace of Precipitation, MM = Missing Value Source: NWS Daily Summary

Daily Weather History Graph

Daily Weather History Graph

Search for Another Location

Airport or City:

Trip Planner

Search our weather history database for the weather conditions in past years. The results will help you decide how hot, cold, wet, or windy it might be!

Date:

Astronomy

Aug. 22, 2014 Rise Set
Actual Time 7:05 AM EDT 8:08 PM EDT
Civil Twilight 6:40 AM EDT 8:32 PM EDT
Nautical Twilight 6:11 AM EDT 9:02 PM EDT
Astronomical Twilight 5:41 AM EDT 9:32 PM EDT
Moon 4:32 AM EDT (8/22) 6:12 PM EDT (8/22)
Length of Visible Light 13h 52m
Length of Day
13h 02m
Waning Crescent, 8% of the Moon is Illuminated
Aug 22
Waning Crescent
Aug 25
New
Sep 2
First Quarter
Sep 8
Full
Sep 15
Last Quarter

Hourly Weather History & Observations

Time (EDT) Temp. Heat Index Dew Point Humidity Pressure Visibility Wind Dir Wind Speed Gust Speed Precip Events Conditions
12:15 AM 71.6 °F - 69.8 °F 94% 30.12 in 10.0 mi Calm Calm - N/A   Clear
12:35 AM 71.6 °F - 69.8 °F 94% 30.11 in 10.0 mi NW 3.5 mph - N/A   Clear
12:55 AM 71.6 °F - 69.8 °F 94% 30.10 in 10.0 mi Calm Calm - N/A   Clear
1:15 AM 71.6 °F - 69.8 °F 94% 30.10 in 10.0 mi Calm Calm - N/A   Clear
1:35 AM 71.6 °F - 69.8 °F 94% 30.10 in 10.0 mi Calm Calm - N/A   Clear
1:55 AM 71.6 °F - 71.6 °F 100% 30.09 in 10.0 mi Calm Calm - N/A   Clear
2:15 AM 71.6 °F - 71.6 °F 100% 30.09 in 10.0 mi Calm Calm - N/A   Clear
2:35 AM 71.6 °F - 71.6 °F 100% 30.08 in 7.0 mi Calm Calm - N/A   Clear
3:15 AM 71.6 °F - 71.6 °F 100% 30.07 in 7.0 mi Calm Calm - N/A   Clear
3:35 AM 71.6 °F - 71.6 °F 100% 30.07 in 7.0 mi Calm Calm - N/A   Clear
3:55 AM 71.6 °F - 71.6 °F 100% 30.06 in 7.0 mi Calm Calm - N/A   Clear
4:15 AM 71.6 °F - 71.6 °F 100% 30.06 in 5.0 mi Calm Calm - N/A   Clear
4:40 AM 71.6 °F - 71.6 °F 100% 30.06 in 5.0 mi Calm Calm - N/A   Clear
4:55 AM 71.6 °F - 71.6 °F 100% 30.05 in 7.0 mi Calm Calm - N/A   Clear
5:15 AM 71.6 °F - 71.6 °F 100% 30.06 in 7.0 mi Calm Calm - N/A   Clear
5:35 AM 71.6 °F - 71.6 °F 100% 30.06 in 7.0 mi Calm Calm - N/A   Clear
5:55 AM 71.6 °F - 71.6 °F 100% 30.06 in 5.0 mi Calm Calm - N/A   Clear
6:15 AM 71.6 °F - 71.6 °F 100% 30.07 in 5.0 mi Calm Calm - N/A   Clear
6:35 AM 71.6 °F - 71.6 °F 100% 30.07 in 5.0 mi Calm Calm - N/A   Clear
6:55 AM 71.6 °F - 71.6 °F 100% 30.07 in 5.0 mi Calm Calm - N/A   Clear
7:15 AM 71.6 °F - 71.6 °F 100% 30.07 in 7.0 mi Calm Calm - N/A   Clear
7:35 AM 71.6 °F - 71.6 °F 100% 30.08 in 5.0 mi Calm Calm - N/A   Clear
7:55 AM 71.6 °F - 71.6 °F 100% 30.09 in 4.0 mi Calm Calm - N/A   Clear
8:15 AM 73.4 °F - 71.6 °F 94% 30.09 in 7.0 mi Calm Calm - N/A   Clear
8:35 AM 73.4 °F - 73.4 °F 100% 30.09 in 7.0 mi Calm Calm - N/A   Clear
8:50 AM 77.0 °F - 73.4 °F 89% 30.09 in 7.0 mi Calm Calm - N/A   Clear
9:15 AM 78.8 °F - 75.2 °F 89% 30.09 in 10.0 mi Calm Calm - N/A   Clear
9:35 AM 80.6 °F 86.2 °F 75.2 °F 84% 30.10 in 10.0 mi Calm Calm - N/A   Clear
9:55 AM 82.4 °F 90.9 °F 77.0 °F 84% 30.10 in 10.0 mi North 4.6 mph - N/A   Clear
10:15 AM 82.4 °F 90.9 °F 77.0 °F 84% 30.10 in 10.0 mi Calm Calm - N/A   Clear
10:35 AM 84.2 °F 92.3 °F 75.2 °F 74% 30.10 in 10.0 mi North 3.5 mph - N/A   Clear
10:55 AM 86.0 °F 95.1 °F 75.2 °F 70% 30.10 in 10.0 mi Calm Calm - N/A   Clear
11:15 AM 86.0 °F 93.4 °F 73.4 °F 66% 30.10 in 10.0 mi NW 4.6 mph - N/A   Clear
11:35 AM 87.8 °F 93.8 °F 71.6 °F 58% 30.10 in 10.0 mi North 3.5 mph - N/A   Clear
11:55 AM 89.6 °F 96.2 °F 71.6 °F 55% 30.10 in 10.0 mi NNW 3.5 mph - N/A   Clear
12:15 PM 89.6 °F 96.2 °F 71.6 °F 55% 30.10 in 10.0 mi North 5.8 mph - N/A   Clear
12:40 PM 89.6 °F 96.2 °F 71.6 °F 55% 30.09 in 10.0 mi North 3.5 mph - N/A   Clear
12:55 PM 91.4 °F 96.8 °F 69.8 °F 49% 30.09 in 10.0 mi WNW 5.8 mph - N/A   Clear
1:15 PM 91.4 °F 96.8 °F 69.8 °F 49% 30.08 in 10.0 mi NW 5.8 mph - N/A   Clear
1:35 PM 91.4 °F 95.4 °F 68.0 °F 46% 30.08 in 10.0 mi NNW 6.9 mph - N/A   Clear
1:55 PM 91.4 °F 96.8 °F 69.8 °F 49% 30.08 in 10.0 mi NNW 6.9 mph - N/A   Clear
2:15 PM 91.4 °F 95.4 °F 68.0 °F 46% 30.07 in 10.0 mi NNW 6.9 mph - N/A   Clear
2:35 PM 93.2 °F 98.8 °F 69.8 °F 46% 30.06 in 10.0 mi North 6.9 mph - N/A   Clear
2:55 PM 95.0 °F 101.3 °F 69.8 °F 44% 30.05 in 10.0 mi NW 4.6 mph - N/A   Clear
3:15 PM 93.2 °F 98.8 °F 69.8 °F 46% 30.04 in 10.0 mi West 4.6 mph - N/A   Clear
3:35 PM 95.0 °F 101.3 °F 69.8 °F 44% 30.03 in 10.0 mi NW 5.8 mph - N/A   Clear
3:55 PM 95.0 °F 101.3 °F 69.8 °F 44% 30.01 in 10.0 mi NW 4.6 mph - N/A   Scattered Clouds
4:15 PM 95.0 °F 101.3 °F 69.8 °F 44% 30.00 in 10.0 mi NNW 4.6 mph - N/A   Scattered Clouds
4:35 PM 95.0 °F 99.5 °F 68.0 °F 41% 30.00 in 10.0 mi NNE 4.6 mph - N/A   Clear
4:50 PM 95.0 °F 99.5 °F 68.0 °F 41% 30.00 in 10.0 mi Calm Calm - N/A   Clear
5:15 PM 95.0 °F 99.5 °F 68.0 °F 41% 30.01 in 10.0 mi North 4.6 mph - N/A   Clear
5:35 PM 95.0 °F 99.5 °F 68.0 °F 41% 30.00 in 10.0 mi NW 4.6 mph - N/A   Clear
5:55 PM 95.0 °F 99.5 °F 68.0 °F 41% 30.00 in 10.0 mi West 4.6 mph - N/A   Clear
6:15 PM 95.0 °F 99.5 °F 68.0 °F 41% 29.99 in 10.0 mi West 3.5 mph - N/A   Clear
6:35 PM 95.0 °F 101.3 °F 69.8 °F 44% 29.99 in 10.0 mi WSW 9.2 mph - N/A   Clear
6:55 PM 91.4 °F 102.5 °F 75.2 °F 59% 30.00 in 10.0 mi WSW 8.1 mph - N/A   Clear
7:15 PM 89.6 °F 99.8 °F 75.2 °F 62% 29.99 in 10.0 mi WSW 8.1 mph - N/A   Clear
7:55 PM 86.0 °F 96.9 °F 77.0 °F 74% 30.00 in 10.0 mi West 5.8 mph - N/A   Clear
8:15 PM 84.2 °F 94.1 °F 77.0 °F 79% 30.00 in 10.0 mi West 6.9 mph - N/A   Clear
8:35 PM 82.4 °F 90.9 °F 77.0 °F 84% 30.00 in 10.0 mi Calm Calm - N/A   Clear
8:55 PM 82.4 °F 90.9 °F 77.0 °F 84% 30.00 in 10.0 mi SSW 3.5 mph - N/A   Clear
9:15 PM 82.4 °F 90.9 °F 77.0 °F 84% 30.01 in 10.0 mi SSW 3.5 mph - N/A   Clear
9:50 PM 80.6 °F 87.1 °F 77.0 °F 89% 30.01 in 10.0 mi Calm Calm - N/A   Clear
10:15 PM 80.6 °F 87.1 °F 77.0 °F 89% 30.00 in 10.0 mi Calm Calm - N/A   Clear
10:35 PM 80.6 °F 87.1 °F 77.0 °F 89% 30.01 in 10.0 mi Calm Calm - N/A   Clear
10:55 PM 80.6 °F 87.1 °F 77.0 °F 89% 30.01 in 10.0 mi Calm Calm - N/A   Clear
11:15 PM 78.8 °F - 77.0 °F 94% 30.01 in 10.0 mi Calm Calm - N/A   Clear
11:35 PM 78.8 °F - 77.0 °F 94% 30.01 in 10.0 mi Calm Calm - N/A   Clear
11:55 PM 78.8 °F - 75.2 °F 89% 30.02 in 10.0 mi Calm Calm - N/A   Clear